Regional Weather Roundup
Issued by NWS

Home | Current Version | Previous Version | Text Only | Print | Product List | Glossary Off
Versions: 1 2 3 4 5 6 7 8 9 10 11 12 13 14 15 16 17 18 19 20 21 22 23 24 25 26 27 28 29 30 31 32 33 34 35 36 37 38 39 40 41 42 43 44 45 46 47 48 49 50

772
ASUS45 KBOU 301807
RWRCO

WEATHER ROUNDUP FOR COLORADO
NATIONAL WEATHER SERVICE DENVER/BOULDER CO
1200 PM MDT SAT JUL 30 2016

NOTE: "FAIR" INDICATES FEW OR NO CLOUDS BELOW 12000 FEET WITH NO
SIGNIFICANT WEATHER AND/OR OBSTRUCTIONS TO VISIBILITY.

COZ001>005-013-030-031-301900-
...NORTHWEST COLORADO...

CITY           SKY/WX    TMP DP  RH WIND       PRES   REMARKS
CRAIG          FAIR      86  38  18 CALM      30.14F
HAYDEN         FAIR      81  36  19 E5        30.18S
MEEKER         FAIR      86  30  13 VRB6      30.16F
MOUNT WERNER   NOT AVBL
STEAMBOAT SPGS FAIR      78  38  23 W3        30.20F
WALDEN         FAIR      77  30  18 S5        30.29F
$$

COZ006>008-011-301900-
...WEST CENTRAL VALLEYS...

CITY           SKY/WX    TMP DP  RH WIND       PRES   REMARKS
GRAND JUNCTION FAIR      90  41  18 W13       30.06S
MONTROSE       FAIR      84  41  21 NW8       30.16F
EAGLE          SUNNY     84  37  18 CALM      30.19F
RIFLE          FAIR      86  39  19 CALM      30.10F
DELTA          NOT AVBL
NUCLA          NOT AVBL
$$

COZ017>023-064>068-301900-
...SOUTHWEST COLORADO...

CITY           SKY/WX    TMP DP  RH WIND       PRES   REMARKS
DURANGO        FAIR      82  43  25 E9        30.22F
CORTEZ         FAIR      86  44  23 VRB5      30.15F
PAGOSA SPRINGS FAIR      78  35  21 W7        30.31F
TELLURIDE      FAIR      77  35  21 NW13G20   30.42F
WOLF CREEK PAS FAIR      59  41  51 SW10G16   30.66S
$$

COZ009-010-012-014-032>034-037-058>063-301900-
...CENTRAL COLORADO...

CITY           SKY/WX    TMP DP  RH WIND       PRES   REMARKS
ASPEN          FAIR      82  32  16 N14       30.27F
BUENA VISTA    FAIR      80  37  21 NE6       30.26F
COPPER MTN     FAIR      64  21  19 NW18G25   30.63R
BERTHOUD PASS  FAIR      54  39  58 N23G36    30.64R
COTTONWOOD PAS PTSUNNY   77  27  15 CALM      30.43F
GUNNISON       FAIR      79  41  25 W9        30.31F
KREMMLING      FAIR      79  23  12 CALM      30.24F
LEADVILLE      FAIR      72  25  17 NW15G25   30.44R
MONARCH PASS   FAIR      61  32  33 W29G38    30.72F
SALIDA         FAIR      87  33  14 S9G22     30.29F
SUNLIGHT       FAIR      70  34  26 MISG      30.57S
WILKERSON PASS FAIR      68  28  22 W6        30.58R
$$

COZ069>075-301900-
...SAN LUIS VALLEY/SANGRE DE CRISTO MOUNTAINS...

CITY           SKY/WX    TMP DP  RH WIND       PRES   REMARKS
ALAMOSA          N/A    N/A N/A N/A MISG      30.27F
LA VETA PASS   FAIR      73  41  31 SW7       30.49R
SAGUACHE       FAIR      75  41  29 S8        30.31F
$$

COZ035-036-038>040-301900-
...NORTHERN COLORADO FRONT RANGE...

CITY           SKY/WX    TMP DP  RH WIND       PRES   REMARKS
DENVER INTL AP FAIR      80  59  48 NW9       30.06F
DMNS CITY PARK   N/A     80  58  45 NE5G10    30.06S
AURORA         MOSUNNY   80  58  48 N6        30.09S
FRONT RANGE AP MOSUNNY   82  57  42 NW8       30.08S
ERIE MUNI ARPT FAIR      80  58  46 NW5       30.05F
BOULDER MUN AP FAIR      79  54  41 CALM      30.06S
CENTENNIAL     FAIR      79  56  45 N7        30.10S
BROOMFIELD     SUNNY     77  59  53 N5        30.09F
LONGMONT       NOT AVBL
$$

COZ041-046-047-076>085-087-088-301900-
...PIKES PEAK/PALMER DIVIDE AND SOUTHERN FOOTHILLS...

CITY           SKY/WX    TMP DP  RH WIND       PRES   REMARKS
COLO. SPRINGS  FAIR      79  56  45 VRB5      30.13F
A. F. ACADEMY  SUNNY     81  55  40 S9        30.13F
SCHRIEVER AFB  NOT AVBL
ELLICOTT       NOT AVBL
FALCON         NOT AVBL
FORT CARSON    FAIR      79  61  53 VRB3      30.08F
LIMON          FAIR      85  56  37 SE8       30.05F
MONUMENT HILL  FAIR      82  34  17 NW5       30.19F
TRINIDAD       NOT AVBL
$$

COZ042>045-048>051-090-091-301900-
...NORTHEAST COLORADO...

CITY           SKY/WX    TMP DP  RH WIND       PRES   REMARKS
GREELEY ARPT   FAIR      79  63  57 E7        30.04S
AKRON          FAIR      86  50  28 SE15G21   30.02F
BURLINGTON     FAIR      82  59  45 SE9       30.02F
WRAY           FAIR      86  57  37 E6        29.99F
STERLING       NOT AVBL
HOLYOKE        NOT AVBL
FORT MORGAN    NOT AVBL
$$

COZ086-089-092>099-301900-
...SOUTHEAST COLORADO...

CITY           SKY/WX    TMP DP  RH WIND       PRES   REMARKS
PUEBLO         FAIR      86  59  39 S8        30.00F
LA JUNTA       FAIR      84  60  44 W5        29.99F
LAMAR          FAIR      87  61  41 VRB5      29.96F
SPRINGFIELD      N/A     87  56  34 SW17G28   30.02S
$$




USA.gov is the U.S. government's official web portal to all federal, state and local government web resources and services.